Time,TemperatureF,DewpointF,PressureIn,WindDirection,WindDirectionDegrees,WindSpeedMPH,WindSpeedGustMPH,Humidity,HourlyPrecipIn,Conditions,Clouds,dailyrainin,SolarRadiationWatts/m^2,SoftwareType,DateUTC
2013-01-07 00:02:00,38.0,35.1,30.16,SW,221,2.0,0.0,89,0.00,,,0.00,0,WeatherTracker,2013-01-07 08:02:00,
2013-01-07 00:07:00,38.0,35.1,30.16,SW,225,2.0,3.0,89,0.00,,,0.00,0,WeatherTracker,2013-01-07 08:07:00,
2013-01-07 00:12:00,38.0,35.1,30.16,SW,225,1.0,4.0,89,0.00,,,0.00,0,WeatherTracker,2013-01-07 08:12:00,
2013-01-07 00:17:00,37.9,35.0,30.16,SW,225,1.0,4.0,89,0.00,,,0.00,0,WeatherTracker,2013-01-07 08:17:00,
2013-01-07 00:22:00,37.8,34.9,30.16,SW,225,1.0,3.0,89,0.00,,,0.00,0,WeatherTracker,2013-01-07 08:22:00,
2013-01-07 00:27:00,37.8,34.9,30.17,SW,229,0.0,3.0,89,0.00,,,0.00,0,WeatherTracker,2013-01-07 08:27:00,
2013-01-07 00:32:00,37.9,35.0,30.17,SW,231,0.0,3.0,89,0.00,,,0.00,0,WeatherTracker,2013-01-07 08:32:00,
2013-01-07 00:37:00,38.1,35.2,30.17,WNW,284,2.0,4.0,89,0.00,,,0.00,0,WeatherTracker,2013-01-07 08:37:00,
2013-01-07 00:42:00,38.3,35.3,30.17,WNW,286,0.0,4.0,89,0.00,,,0.00,0,WeatherTracker,2013-01-07 08:42:00,
2013-01-07 00:47:00,38.4,35.4,30.16,WNW,302,4.0,4.0,89,0.00,,,0.00,0,WeatherTracker,2013-01-07 08:47:00,
2013-01-07 00:52:00,38.4,35.2,30.17,WNW,302,0.0,5.0,88,0.00,,,0.00,0,WeatherTracker,2013-01-07 08:52:00,
2013-01-07 00:57:00,38.4,35.2,30.17,WNW,302,0.0,5.0,88,0.00,,,0.00,0,WeatherTracker,2013-01-07 08:57:00,
2013-01-07 01:02:00,38.5,35.3,30.17,WNW,297,0.0,3.0,88,0.00,,,0.00,0,WeatherTracker,2013-01-07 09:02:00,
2013-01-07 01:07:00,38.5,35.5,30.16,WNW,291,0.0,4.0,89,0.00,,,0.00,0,WeatherTracker,2013-01-07 09:07:00,
2013-01-07 01:12:00,38.7,35.7,30.16,NW,311,2.0,6.0,89,0.00,,,0.00,0,WeatherTracker,2013-01-07 09:12:00,
2013-01-07 01:17:00,38.8,35.8,30.16,WNW,294,4.0,7.0,89,0.00,,,0.00,0,WeatherTracker,2013-01-07 09:17:00,
2013-01-07 01:22:00,38.8,35.8,30.16,WNW,294,0.0,7.0,89,0.00,,,0.00,0,WeatherTracker,2013-01-07 09:22:00,
2013-01-07 01:27:00,38.9,35.9,30.16,WNW,299,2.0,7.0,89,0.00,,,0.00,0,WeatherTracker,2013-01-07 09:27:00,
2013-01-07 01:32:00,39.1,36.1,30.16,WNW,282,3.0,7.0,89,0.00,,,0.00,0,WeatherTracker,2013-01-07 09:32:00,
2013-01-07 01:37:00,39.2,36.2,30.16,NW,321,2.0,7.0,89,0.00,,,0.00,0,WeatherTracker,2013-01-07 09:37:00,
2013-01-07 01:42:00,39.4,36.1,30.16,NW,318,1.0,6.0,88,0.00,,,0.00,0,WeatherTracker,2013-01-07 09:42:00,
2013-01-07 01:48:00,39.4,36.1,30.16,NW,318,0.0,6.0,88,0.00,,,0.00,0,WeatherTracker,2013-01-07 09:48:00,
2013-01-07 01:53:00,39.3,36.3,30.16,NW,318,0.0,5.0,89,0.00,,,0.00,0,WeatherTracker,2013-01-07 09:53:00,
2013-01-07 01:58:00,39.0,36.0,30.16,NW,318,0.0,0.0,89,0.00,,,0.00,0,WeatherTracker,2013-01-07 09:58:00,
2013-01-07 02:03:00,38.8,35.8,30.16,NW,318,0.0,0.0,89,0.00,,,0.00,0,WeatherTracker,2013-01-07 10:03:00,
2013-01-07 02:08:00,38.5,35.5,30.16,NW,318,0.0,0.0,89,0.00,,,0.00,0,WeatherTracker,2013-01-07 10:08:00,
2013-01-07 02:13:00,38.3,35.3,30.17,NW,318,0.0,0.0,89,0.00,,,0.00,0,WeatherTracker,2013-01-07 10:13:00,
2013-01-07 02:18:00,38.1,35.2,30.17,NW,308,2.0,0.0,89,0.00,,,0.00,0,WeatherTracker,2013-01-07 10:18:00,
2013-01-07 02:23:00,38.2,35.2,30.17,NW,321,5.0,5.0,89,0.00,,,0.00,0,WeatherTracker,2013-01-07 10:23:00,
2013-01-07 02:28:00,38.5,35.5,30.17,WNW,303,2.0,7.0,89,0.00,,,0.00,0,WeatherTracker,2013-01-07 10:28:00,
2013-01-07 02:33:00,39.0,36.0,30.17,WNW,296,0.0,9.0,89,0.00,,,0.00,0,WeatherTracker,2013-01-07 10:33:00,
2013-01-07 02:38:00,39.4,36.4,30.17,NW,317,5.0,9.0,89,0.00,,,0.00,0,WeatherTracker,2013-01-07 10:38:00,
2013-01-07 02:43:00,39.6,36.3,30.17,NW,304,5.0,9.0,88,0.00,,,0.00,0,WeatherTracker,2013-01-07 10:43:00,
2013-01-07 02:48:00,39.7,36.4,30.17,NW,323,1.0,7.0,88,0.00,,,0.00,0,WeatherTracker,2013-01-07 10:48:00,
2013-01-07 02:53:00,39.7,36.7,30.17,WNW,296,3.0,7.0,89,0.00,,,0.00,0,WeatherTracker,2013-01-07 10:53:00,
2013-01-07 02:58:00,39.8,36.8,30.17,WNW,301,1.0,8.0,89,0.00,,,0.00,0,WeatherTracker,2013-01-07 10:58:00,
2013-01-07 03:03:00,39.9,36.9,30.18,NW,309,5.0,8.0,89,0.00,,,0.00,0,WeatherTracker,2013-01-07 11:03:00,
2013-01-07 03:08:00,39.9,36.9,30.18,NW,309,4.0,7.0,89,0.00,,,0.00,0,WeatherTracker,2013-01-07 11:08:00,
2013-01-07 03:13:00,39.9,36.9,30.17,WNW,288,7.0,8.0,89,0.00,,,0.00,0,WeatherTracker,2013-01-07 11:13:00,
2013-01-07 03:18:00,40.0,37.0,30.17,NW,309,3.0,9.0,89,0.00,,,0.00,0,WeatherTracker,2013-01-07 11:18:00,
2013-01-07 03:23:00,40.1,37.1,30.17,West,278,3.0,9.0,89,0.00,,,0.00,0,WeatherTracker,2013-01-07 11:23:00,
2013-01-07 03:28:00,40.1,37.1,30.17,NW,317,0.0,7.0,89,0.00,,,0.00,0,WeatherTracker,2013-01-07 11:28:00,
2013-01-07 03:33:00,40.0,37.0,30.17,WNW,302,4.0,7.0,89,0.00,,,0.00,0,WeatherTracker,2013-01-07 11:33:00,
2013-01-07 03:38:00,39.9,36.9,30.17,NW,307,2.0,6.0,89,0.00,,,0.00,0,WeatherTracker,2013-01-07 11:38:00,
2013-01-07 03:44:00,39.9,36.9,30.17,WNW,298,0.0,6.0,89,0.00,,,0.00,0,WeatherTracker,2013-01-07 11:44:00,
2013-01-07 03:49:00,39.8,36.8,30.17,NW,315,2.0,6.0,89,0.00,,,0.00,0,WeatherTracker,2013-01-07 11:49:00,
2013-01-07 03:54:00,39.7,36.7,30.18,NW,320,3.0,6.0,89,0.00,,,0.00,0,WeatherTracker,2013-01-07 11:54:00,
2013-01-07 03:59:00,39.6,36.6,30.17,NW,315,3.0,6.0,89,0.00,,,0.00,0,WeatherTracker,2013-01-07 11:59:00,
2013-01-07 04:04:00,39.5,36.5,30.18,NW,325,2.0,4.0,89,0.00,,,0.00,0,WeatherTracker,2013-01-07 12:04:00,
2013-01-07 04:09:00,39.5,36.5,30.18,NW,323,3.0,5.0,89,0.00,,,0.00,0,WeatherTracker,2013-01-07 12:09:00,
2013-01-07 04:14:00,39.4,36.4,30.18,NW,320,3.0,5.0,89,0.00,,,0.00,0,WeatherTracker,2013-01-07 12:14:00,
2013-01-07 04:19:00,39.4,36.4,30.18,NW,317,0.0,7.0,89,0.00,,,0.00,0,WeatherTracker,2013-01-07 12:19:00,
2013-01-07 04:24:00,39.4,36.4,30.17,NW,319,0.0,7.0,89,0.00,,,0.00,0,WeatherTracker,2013-01-07 12:24:00,
2013-01-07 04:29:00,39.3,36.3,30.17,NW,319,0.0,4.0,89,0.00,,,0.00,0,WeatherTracker,2013-01-07 12:29:00,
2013-01-07 04:34:00,39.0,36.3,30.17,NW,319,0.0,0.0,90,0.00,,,0.00,0,WeatherTracker,2013-01-07 12:34:00,
2013-01-07 04:39:00,38.8,35.8,30.17,NW,319,0.0,0.0,89,0.00,,,0.00,0,WeatherTracker,2013-01-07 12:39:00,
2013-01-07 04:44:00,38.5,35.5,30.17,NW,319,0.0,0.0,89,0.00,,,0.00,0,WeatherTracker,2013-01-07 12:44:00,
2013-01-07 04:49:00,38.2,35.5,30.18,NW,319,0.0,0.0,90,0.00,,,0.00,0,WeatherTracker,2013-01-07 12:49:00,
2013-01-07 04:54:00,38.0,35.1,30.17,NW,319,0.0,0.0,89,0.00,,,0.00,0,WeatherTracker,2013-01-07 12:54:00,
2013-01-07 04:59:00,37.8,35.1,30.18,NW,319,0.0,0.0,90,0.00,,,0.00,0,WeatherTracker,2013-01-07 12:59:00,
2013-01-07 05:04:00,37.7,35.0,30.18,NNW,327,0.0,0.0,90,0.00,,,0.00,0,WeatherTracker,2013-01-07 13:04:00,
2013-01-07 05:09:00,37.7,35.0,30.18,NNW,327,0.0,0.0,90,0.00,,,0.00,0,WeatherTracker,2013-01-07 13:09:00,
2013-01-07 05:14:00,37.5,34.6,30.18,NNW,327,0.0,0.0,89,0.00,,,0.00,0,WeatherTracker,2013-01-07 13:14:00,
2013-01-07 05:19:00,37.4,34.5,30.18,NNW,327,0.0,0.0,89,0.00,,,0.00,0,WeatherTracker,2013-01-07 13:19:00,
2013-01-07 05:25:00,37.2,34.5,30.18,NNW,327,0.0,0.0,90,0.00,,,0.00,0,WeatherTracker,2013-01-07 13:25:00,
2013-01-07 05:30:00,37.1,34.4,30.18,NNW,327,0.0,0.0,90,0.00,,,0.00,0,WeatherTracker,2013-01-07 13:30:00,
2013-01-07 05:35:00,37.0,34.3,30.18,NNW,327,0.0,0.0,90,0.00,,,0.00,0,WeatherTracker,2013-01-07 13:35:00,
2013-01-07 05:40:00,36.9,34.0,30.18,NNW,327,0.0,0.0,89,0.00,,,0.00,0,WeatherTracker,2013-01-07 13:40:00,
2013-01-07 05:45:00,36.7,33.8,30.18,NNW,327,0.0,0.0,89,0.00,,,0.00,0,WeatherTracker,2013-01-07 13:45:00,
2013-01-07 05:50:00,36.5,33.6,30.18,NNW,327,0.0,0.0,89,0.00,,,0.00,0,WeatherTracker,2013-01-07 13:50:00,
2013-01-07 05:55:00,36.4,33.5,30.18,NNW,327,0.0,0.0,89,0.00,,,0.00,0,WeatherTracker,2013-01-07 13:55:00,
2013-01-07 06:00:00,36.3,33.4,30.18,NNW,327,0.0,0.0,89,0.00,,,0.00,0,WeatherTracker,2013-01-07 14:00:00,
2013-01-07 06:05:00,36.2,33.3,30.18,NNW,327,0.0,0.0,89,0.00,,,0.00,0,WeatherTracker,2013-01-07 14:05:00,
2013-01-07 06:10:00,36.1,33.2,30.19,NNW,327,0.0,0.0,89,0.00,,,0.00,0,WeatherTracker,2013-01-07 14:10:00,
2013-01-07 06:15:00,36.0,33.1,30.19,NNW,327,0.0,0.0,89,0.00,,,0.00,0,WeatherTracker,2013-01-07 14:15:00,
2013-01-07 06:20:00,36.0,33.1,30.19,NNW,327,0.0,0.0,89,0.00,,,0.00,0,WeatherTracker,2013-01-07 14:20:00,
2013-01-07 06:25:00,35.9,33.0,30.20,NNW,327,0.0,0.0,89,0.00,,,0.00,0,WeatherTracker,2013-01-07 14:25:00,
2013-01-07 06:30:00,35.8,32.9,30.19,NNW,327,0.0,0.0,89,0.00,,,0.00,0,WeatherTracker,2013-01-07 14:30:00,
2013-01-07 06:36:00,35.9,33.0,30.19,NNW,327,0.0,0.0,89,0.00,,,0.00,0,WeatherTracker,2013-01-07 14:36:00,
2013-01-07 06:41:00,35.9,33.0,30.18,NNW,327,0.0,0.0,89,0.00,,,0.00,0,WeatherTracker,2013-01-07 14:41:00,
2013-01-07 06:46:00,36.0,33.1,30.18,NNW,327,0.0,0.0,89,0.00,,,0.00,0,WeatherTracker,2013-01-07 14:46:00,
2013-01-07 06:51:00,36.0,33.1,30.20,NNW,327,0.0,0.0,89,0.00,,,0.00,0,WeatherTracker,2013-01-07 14:51:00,
2013-01-07 06:56:00,36.0,33.1,30.19,NNW,327,0.0,0.0,89,0.00,,,0.00,0,WeatherTracker,2013-01-07 14:56:00,
2013-01-07 07:01:00,36.0,33.1,30.19,NNW,327,0.0,0.0,89,0.00,,,0.00,0,WeatherTracker,2013-01-07 15:01:00,
2013-01-07 07:06:00,36.0,33.1,30.19,NNW,327,0.0,0.0,89,0.00,,,0.00,0,WeatherTracker,2013-01-07 15:06:00,
2013-01-07 07:11:00,36.1,33.2,30.20,NNW,327,0.0,0.0,89,0.00,,,0.00,0,WeatherTracker,2013-01-07 15:11:00,
2013-01-07 07:16:00,36.1,33.2,30.20,NNW,327,0.0,0.0,89,0.00,,,0.00,5,WeatherTracker,2013-01-07 15:16:00,
2013-01-07 07:21:00,36.2,33.3,30.20,NNW,327,0.0,0.0,89,0.00,,,0.00,7,WeatherTracker,2013-01-07 15:21:00,
2013-01-07 07:26:00,36.3,33.4,30.20,NNW,327,0.0,0.0,89,0.00,,,0.00,5,WeatherTracker,2013-01-07 15:26:00,
2013-01-07 07:31:00,36.4,33.5,30.20,NNW,327,0.0,0.0,89,0.00,,,0.00,5,WeatherTracker,2013-01-07 15:31:00,
2013-01-07 07:36:00,36.6,33.7,30.21,NNW,327,0.0,0.0,89,0.00,,,0.00,7,WeatherTracker,2013-01-07 15:36:00,
2013-01-07 07:41:00,36.7,33.8,30.21,NNW,327,0.0,0.0,89,0.00,,,0.00,11,WeatherTracker,2013-01-07 15:41:00,
2013-01-07 07:46:00,36.9,34.0,30.21,NNW,327,0.0,0.0,89,0.00,,,0.00,14,WeatherTracker,2013-01-07 15:46:00,
2013-01-07 07:51:00,36.9,34.0,30.21,NNW,327,0.0,0.0,89,0.00,,,0.00,18,WeatherTracker,2013-01-07 15:51:00,
2013-01-07 07:56:00,36.9,34.0,30.21,NNW,327,0.0,0.0,89,0.00,,,0.00,21,WeatherTracker,2013-01-07 15:56:00,
2013-01-07 08:01:00,36.9,34.0,30.21,NNW,327,0.0,0.0,89,0.00,,,0.00,28,WeatherTracker,2013-01-07 16:01:00,
2013-01-07 08:06:00,37.0,34.1,30.20,NNW,327,0.0,0.0,89,0.00,,,0.00,39,WeatherTracker,2013-01-07 16:06:00,
2013-01-07 08:11:00,37.1,34.2,30.20,NNW,327,0.0,0.0,89,0.00,,,0.00,42,WeatherTracker,2013-01-07 16:11:00,
2013-01-07 08:16:00,37.3,34.4,30.20,NNW,327,0.0,3.0,89,0.00,,,0.00,44,WeatherTracker,2013-01-07 16:16:00,
2013-01-07 08:21:00,37.5,34.6,30.19,NNW,327,0.0,3.0,89,0.00,,,0.00,51,WeatherTracker,2013-01-07 16:21:00,
2013-01-07 08:26:00,37.7,34.8,30.19,ESE,110,0.0,2.0,89,0.00,,,0.00,69,WeatherTracker,2013-01-07 16:26:00,
2013-01-07 08:31:00,38.0,35.1,30.20,ESE,110,0.0,0.0,89,0.00,,,0.00,84,WeatherTracker,2013-01-07 16:31:00,
2013-01-07 08:36:00,38.4,35.4,30.21,SSE,158,0.0,0.0,89,0.00,,,0.00,88,WeatherTracker,2013-01-07 16:36:00,
2013-01-07 08:41:00,38.7,35.7,30.22,South,188,0.0,0.0,89,0.00,,,0.00,91,WeatherTracker,2013-01-07 16:41:00,
2013-01-07 08:46:00,39.1,36.1,30.23,South,188,0.0,0.0,89,0.00,,,0.00,97,WeatherTracker,2013-01-07 16:46:00,
2013-01-07 08:51:00,39.4,36.4,30.23,South,188,0.0,0.0,89,0.00,,,0.00,76,WeatherTracker,2013-01-07 16:51:00,
2013-01-07 08:56:00,39.7,36.7,30.24,South,189,0.0,0.0,89,0.00,,,0.00,83,WeatherTracker,2013-01-07 16:56:00,
2013-01-07 09:01:00,40.0,37.0,30.24,SSW,213,0.0,1.0,89,0.00,,,0.00,88,WeatherTracker,2013-01-07 17:01:00,
2013-01-07 09:06:00,40.2,37.2,30.24,SSW,213,0.0,1.0,89,0.00,,,0.00,114,WeatherTracker,2013-01-07 17:06:00,
2013-01-07 09:11:00,40.4,37.4,30.23,SSW,212,0.0,0.0,89,0.00,,,0.00,128,WeatherTracker,2013-01-07 17:11:00,
2013-01-07 09:16:00,40.8,37.8,30.23,SSW,212,0.0,0.0,89,0.00,,,0.00,200,WeatherTracker,2013-01-07 17:16:00,
2013-01-07 09:22:00,41.3,38.3,30.24,SSW,212,3.0,3.0,89,0.00,,,0.00,185,WeatherTracker,2013-01-07 17:22:00,
2013-01-07 09:27:00,41.9,38.9,30.24,SSW,212,2.0,4.0,89,0.00,,,0.00,188,WeatherTracker,2013-01-07 17:27:00,
2013-01-07 09:32:00,42.8,39.8,30.24,SSW,212,0.0,4.0,89,0.00,,,0.00,262,WeatherTracker,2013-01-07 17:32:00,
2013-01-07 09:37:00,43.6,40.6,30.24,SSW,212,0.0,4.0,89,0.00,,,0.00,134,WeatherTracker,2013-01-07 17:37:00,
2013-01-07 09:42:00,43.9,40.9,30.24,SSW,212,0.0,0.0,89,0.00,,,0.00,192,WeatherTracker,2013-01-07 17:42:00,
2013-01-07 09:47:00,44.6,41.6,30.24,SSW,212,0.0,0.0,89,0.00,,,0.00,251,WeatherTracker,2013-01-07 17:47:00,
2013-01-07 09:52:00,45.3,42.3,30.25,SSW,212,0.0,0.0,89,0.00,,,0.00,295,WeatherTracker,2013-01-07 17:52:00,
2013-01-07 09:57:00,45.9,42.8,30.25,SSW,212,0.0,0.0,89,0.00,,,0.00,202,WeatherTracker,2013-01-07 17:57:00,
2013-01-07 10:02:00,46.1,42.7,30.25,South,189,3.0,4.0,88,0.00,,,0.00,243,WeatherTracker,2013-01-07 18:02:00,
2013-01-07 10:07:00,46.2,42.5,30.25,South,189,0.0,5.0,87,0.00,,,0.00,308,WeatherTracker,2013-01-07 18:07:00,
2013-01-07 10:12:00,46.8,43.1,30.25,South,189,0.0,5.0,87,0.00,,,0.00,385,WeatherTracker,2013-01-07 18:12:00,
2013-01-07 10:17:00,47.4,43.4,30.25,South,189,0.0,0.0,86,0.00,,,0.00,302,WeatherTracker,2013-01-07 18:17:00,
2013-01-07 10:22:00,47.8,42.9,30.25,South,184,0.0,4.0,83,0.00,,,0.00,297,WeatherTracker,2013-01-07 18:22:00,
2013-01-07 10:27:00,48.2,43.3,30.25,South,184,0.0,5.0,83,0.00,,,0.00,427,WeatherTracker,2013-01-07 18:27:00,
2013-01-07 10:32:00,48.6,43.7,30.26,South,184,0.0,5.0,83,0.00,,,0.00,396,WeatherTracker,2013-01-07 18:32:00,
2013-01-07 10:37:00,48.9,43.3,30.25,South,184,0.0,0.0,81,0.00,,,0.00,250,WeatherTracker,2013-01-07 18:37:00,
2013-01-07 10:42:00,49.0,43.1,30.25,South,184,0.0,0.0,80,0.00,,,0.00,176,WeatherTracker,2013-01-07 18:42:00,
2013-01-07 10:47:00,48.8,43.2,30.25,South,184,0.0,0.0,81,0.00,,,0.00,381,WeatherTracker,2013-01-07 18:47:00,
2013-01-07 10:52:00,49.2,43.9,30.24,South,182,0.0,0.0,82,0.00,,,0.00,431,WeatherTracker,2013-01-07 18:52:00,
2013-01-07 10:57:00,49.8,42.9,30.24,East,82,4.0,4.0,77,0.00,,,0.00,373,WeatherTracker,2013-01-07 18:57:00,
2013-01-07 11:03:00,50.1,43.2,30.24,East,96,6.0,6.0,77,0.00,,,0.00,445,WeatherTracker,2013-01-07 19:03:00,
2013-01-07 11:08:00,50.4,43.5,30.24,ESE,102,4.0,7.0,77,0.00,,,0.00,455,WeatherTracker,2013-01-07 19:08:00,
2013-01-07 11:13:00,50.9,43.6,30.23,ESE,107,5.0,7.0,76,0.00,,,0.00,410,WeatherTracker,2013-01-07 19:13:00,
2013-01-07 11:18:00,51.0,43.4,30.23,ESE,105,2.0,8.0,75,0.00,,,0.00,464,WeatherTracker,2013-01-07 19:18:00,
2013-01-07 11:23:00,50.9,42.6,30.23,ENE,63,0.0,8.0,73,0.00,,,0.00,454,WeatherTracker,2013-01-07 19:23:00,
2013-01-07 11:28:00,51.0,43.7,30.23,East,88,3.0,8.0,76,0.00,,,0.00,482,WeatherTracker,2013-01-07 19:28:00,
2013-01-07 11:33:00,51.5,43.8,30.23,SE,128,5.0,9.0,75,0.00,,,0.00,503,WeatherTracker,2013-01-07 19:33:00,
2013-01-07 11:38:00,51.7,43.0,30.23,ESE,115,4.0,9.0,72,0.00,,,0.00,510,WeatherTracker,2013-01-07 19:38:00,
2013-01-07 11:43:00,51.9,43.5,30.22,East,91,5.0,8.0,73,0.00,,,0.00,531,WeatherTracker,2013-01-07 19:43:00,
2013-01-07 11:48:00,52.2,43.8,30.23,East,84,4.0,8.0,73,0.00,,,0.00,568,WeatherTracker,2013-01-07 19:48:00,
2013-01-07 11:53:00,52.6,43.8,30.22,ESE,121,5.0,8.0,72,0.00,,,0.00,585,WeatherTracker,2013-01-07 19:53:00,
2013-01-07 11:58:00,52.8,43.7,30.22,SE,126,4.0,8.0,71,0.00,,,0.00,570,WeatherTracker,2013-01-07 19:58:00,
2013-01-07 12:03:00,53.1,43.6,30.22,ESE,119,4.0,8.0,70,0.00,,,0.00,394,WeatherTracker,2013-01-07 20:03:00,
2013-01-07 12:08:00,53.0,43.5,30.23,ESE,109,0.0,8.0,70,0.00,,,0.00,381,WeatherTracker,2013-01-07 20:08:00,
2013-01-07 12:13:00,52.9,43.4,30.22,ESE,115,4.0,6.0,70,0.00,,,0.00,473,WeatherTracker,2013-01-07 20:13:00,
2013-01-07 12:18:00,53.1,43.2,30.22,ESE,119,6.0,7.0,69,0.00,,,0.00,492,WeatherTracker,2013-01-07 20:18:00,
2013-01-07 12:19:00,53.1,43.6,30.22,ESE,119,6.0,7.0,70,0.00,,,0.00,492,WeatherTracker,2013-01-07 20:19:00,
2013-01-07 12:24:00,53.2,43.7,30.22,ESE,109,1.0,7.0,70,0.00,,,0.00,476,WeatherTracker,2013-01-07 20:24:00,
2013-01-07 12:29:00,53.3,43.8,30.21,ESE,109,0.0,7.0,70,0.00,,,0.00,524,WeatherTracker,2013-01-07 20:29:00,
2013-01-07 12:34:00,53.6,44.1,30.20,East,94,4.0,6.0,70,0.00,,,0.00,452,WeatherTracker,2013-01-07 20:34:00,
2013-01-07 12:39:00,53.9,44.0,30.20,SE,130,6.0,7.0,69,0.00,,,0.00,350,WeatherTracker,2013-01-07 20:39:00,
2013-01-07 12:44:00,53.9,43.2,30.20,SE,126,0.0,8.0,67,0.00,,,0.00,299,WeatherTracker,2013-01-07 20:44:00,
2013-01-07 12:49:00,53.8,44.2,30.20,ESE,113,0.0,8.0,70,0.00,,,0.00,279,WeatherTracker,2013-01-07 20:49:00,
2013-01-07 12:54:00,53.8,44.6,30.20,ESE,107,0.0,7.0,71,0.00,,,0.00,297,WeatherTracker,2013-01-07 20:54:00,
2013-01-07 12:59:00,53.7,44.5,30.20,ESE,107,0.0,5.0,71,0.00,,,0.00,323,WeatherTracker,2013-01-07 20:59:00,
2013-01-07 13:04:00,53.6,44.1,30.20,ESE,112,0.0,5.0,70,0.00,,,0.00,445,WeatherTracker,2013-01-07 21:04:00,
2013-01-07 13:09:00,54.0,44.4,30.20,ESE,120,0.0,0.0,70,0.00,,,0.00,424,WeatherTracker,2013-01-07 21:09:00,
2013-01-07 13:14:00,54.2,44.3,30.20,ESE,108,0.0,5.0,69,0.00,,,0.00,306,WeatherTracker,2013-01-07 21:14:00,
2013-01-07 13:19:00,54.1,44.2,30.20,ESE,107,0.0,6.0,69,0.00,,,0.00,283,WeatherTracker,2013-01-07 21:19:00,
2013-01-07 13:24:00,53.9,43.6,30.20,ESE,106,0.0,6.0,68,0.00,,,0.00,262,WeatherTracker,2013-01-07 21:24:00,
2013-01-07 13:29:00,53.7,43.8,30.20,ESE,106,0.0,6.0,69,0.00,,,0.00,253,WeatherTracker,2013-01-07 21:29:00,
2013-01-07 13:35:00,53.6,44.4,30.20,ESE,103,0.0,1.0,71,0.00,,,0.00,251,WeatherTracker,2013-01-07 21:35:00,
2013-01-07 13:40:00,53.5,44.7,30.20,ENE,77,2.0,6.0,72,0.00,,,0.00,283,WeatherTracker,2013-01-07 21:40:00,
2013-01-07 13:45:00,53.0,44.9,30.20,ENE,73,4.0,6.0,74,0.00,,,0.00,232,WeatherTracker,2013-01-07 21:45:00,
2013-01-07 13:50:00,52.7,44.6,30.20,ENE,68,3.0,5.0,74,0.00,,,0.00,213,WeatherTracker,2013-01-07 21:50:00,
2013-01-07 13:55:00,52.4,44.7,30.19,ENE,67,0.0,7.0,75,0.00,,,0.00,213,WeatherTracker,2013-01-07 21:55:00,
2013-01-07 14:00:00,52.2,44.5,30.20,ENE,74,3.0,7.0,75,0.00,,,0.00,207,WeatherTracker,2013-01-07 22:00:00,
2013-01-07 14:05:00,52.1,44.8,30.20,ENE,77,0.0,5.0,76,0.00,,,0.00,207,WeatherTracker,2013-01-07 22:05:00,
2013-01-07 14:10:00,51.9,44.2,30.20,NE,49,6.0,8.0,75,0.00,,,0.00,207,WeatherTracker,2013-01-07 22:10:00,
2013-01-07 14:15:00,51.6,43.9,30.20,ENE,60,0.0,8.0,75,0.00,,,0.00,199,WeatherTracker,2013-01-07 22:15:00,
2013-01-07 14:20:00,51.5,44.2,30.20,ENE,76,3.0,7.0,76,0.00,,,0.00,251,WeatherTracker,2013-01-07 22:20:00,
2013-01-07 14:25:00,51.5,44.2,30.20,ENE,59,5.0,6.0,76,0.00,,,0.00,237,WeatherTracker,2013-01-07 22:25:00,
2013-01-07 14:30:00,51.6,44.3,30.20,ENE,57,3.0,6.0,76,0.00,,,0.00,279,WeatherTracker,2013-01-07 22:30:00,
2013-01-07 14:35:00,51.8,44.1,30.20,NE,55,4.0,6.0,75,0.00,,,0.00,253,WeatherTracker,2013-01-07 22:35:00,
2013-01-07 14:40:00,51.8,44.1,30.20,ENE,65,0.0,6.0,75,0.00,,,0.00,225,WeatherTracker,2013-01-07 22:40:00,
2013-01-07 14:45:00,51.9,43.9,30.20,East,88,4.0,6.0,74,0.00,,,0.00,209,WeatherTracker,2013-01-07 22:45:00,
2013-01-07 14:50:00,51.7,43.7,30.20,East,80,4.0,6.0,74,0.00,,,0.00,172,WeatherTracker,2013-01-07 22:50:00,
2013-01-07 14:55:00,51.6,43.6,30.20,ENE,76,3.0,6.0,74,0.00,,,0.00,155,WeatherTracker,2013-01-07 22:55:00,
2013-01-07 15:00:00,51.5,43.8,30.20,East,90,0.0,5.0,75,0.00,,,0.00,200,WeatherTracker,2013-01-07 23:00:00,
2013-01-07 15:06:00,51.5,43.8,30.20,ESE,108,4.0,6.0,75,0.00,,,0.00,171,WeatherTracker,2013-01-07 23:06:00,
2013-01-07 15:11:00,51.5,43.8,30.20,ESE,108,2.0,6.0,75,0.00,,,0.00,146,WeatherTracker,2013-01-07 23:11:00,
2013-01-07 15:16:00,51.5,43.5,30.19,East,99,0.0,6.0,74,0.00,,,0.00,160,WeatherTracker,2013-01-07 23:16:00,
2013-01-07 15:21:00,51.4,43.7,30.19,East,100,0.0,6.0,75,0.00,,,0.00,163,WeatherTracker,2013-01-07 23:21:00,
2013-01-07 15:26:00,51.4,43.4,30.19,ENE,70,2.0,6.0,74,0.00,,,0.00,172,WeatherTracker,2013-01-07 23:26:00,
2013-01-07 15:31:00,51.4,43.4,30.20,East,88,4.0,5.0,74,0.00,,,0.00,125,WeatherTracker,2013-01-07 23:31:00,
2013-01-07 15:36:00,51.2,42.8,30.20,East,84,2.0,5.0,73,0.00,,,0.00,105,WeatherTracker,2013-01-07 23:36:00,
2013-01-07 15:41:00,51.0,42.7,30.20,East,81,0.0,5.0,73,0.00,,,0.00,98,WeatherTracker,2013-01-07 23:41:00,
2013-01-07 15:46:00,50.9,42.6,30.20,East,81,0.0,5.0,73,0.00,,,0.00,84,WeatherTracker,2013-01-07 23:46:00,
2013-01-07 15:51:00,50.8,43.2,30.20,East,81,0.0,0.0,75,0.00,,,0.00,70,WeatherTracker,2013-01-07 23:51:00,
2013-01-07 15:56:00,50.6,42.6,30.20,East,81,0.0,0.0,74,0.00,,,0.00,69,WeatherTracker,2013-01-07 23:56:00,
2013-01-07 16:01:00,50.5,42.5,30.20,East,81,0.0,0.0,74,0.00,,,0.00,67,WeatherTracker,2013-01-08 00:01:00,
2013-01-07 16:06:00,50.4,42.4,30.20,East,81,0.0,0.0,74,0.00,,,0.00,60,WeatherTracker,2013-01-08 00:06:00,
2013-01-07 16:11:00,50.2,42.6,30.20,East,81,0.0,0.0,75,0.00,,,0.00,51,WeatherTracker,2013-01-08 00:11:00,
2013-01-07 16:16:00,50.1,42.8,30.19,East,81,0.0,0.0,76,0.00,,,0.00,40,WeatherTracker,2013-01-08 00:16:00,
2013-01-07 16:21:00,50.0,42.7,30.20,East,81,0.0,0.0,76,0.00,,,0.00,35,WeatherTracker,2013-01-08 00:21:00,
2013-01-07 16:26:00,49.8,42.5,30.20,East,81,0.0,0.0,76,0.00,,,0.00,33,WeatherTracker,2013-01-08 00:26:00,
2013-01-07 16:31:00,49.7,42.8,30.20,East,81,0.0,0.0,77,0.00,,,0.00,32,WeatherTracker,2013-01-08 00:31:00,
2013-01-07 16:36:00,49.5,42.9,30.19,East,81,0.0,0.0,78,0.00,,,0.00,28,WeatherTracker,2013-01-08 00:36:00,
2013-01-07 16:41:00,49.3,42.7,30.19,East,81,0.0,0.0,78,0.00,,,0.00,21,WeatherTracker,2013-01-08 00:41:00,
2013-01-07 16:46:00,49.1,42.5,30.19,East,81,0.0,0.0,78,0.00,,,0.00,14,WeatherTracker,2013-01-08 00:46:00,
2013-01-07 16:51:00,48.9,42.7,30.19,East,81,0.0,0.0,79,0.00,,,0.00,11,WeatherTracker,2013-01-08 00:51:00,
2013-01-07 16:57:00,48.7,42.5,30.19,East,81,0.0,0.0,79,0.00,,,0.00,7,WeatherTracker,2013-01-08 00:57:00,
2013-01-07 17:02:00,48.4,42.5,30.19,East,81,0.0,0.0,80,0.00,,,0.00,5,WeatherTracker,2013-01-08 01:02:00,
2013-01-07 17:07:00,48.2,42.6,30.19,East,81,0.0,0.0,81,0.00,,,0.00,0,WeatherTracker,2013-01-08 01:07:00,
2013-01-07 17:12:00,48.0,42.5,30.19,East,81,0.0,0.0,81,0.00,,,0.00,0,WeatherTracker,2013-01-08 01:12:00,
2013-01-07 17:17:00,47.9,42.7,30.19,East,81,0.0,0.0,82,0.00,,,0.00,0,WeatherTracker,2013-01-08 01:17:00,
2013-01-07 17:22:00,47.8,42.9,30.18,East,81,0.0,0.0,83,0.00,,,0.00,0,WeatherTracker,2013-01-08 01:22:00,
2013-01-07 17:27:00,47.6,42.7,30.18,East,81,0.0,0.0,83,0.00,,,0.00,0,WeatherTracker,2013-01-08 01:27:00,
2013-01-07 17:32:00,47.5,42.9,30.18,East,81,0.0,0.0,84,0.00,,,0.00,0,WeatherTracker,2013-01-08 01:32:00,
2013-01-07 17:37:00,47.3,42.7,30.18,East,81,0.0,0.0,84,0.00,,,0.00,0,WeatherTracker,2013-01-08 01:37:00,
2013-01-07 17:42:00,47.2,42.6,30.19,East,81,0.0,0.0,84,0.00,,,0.00,0,WeatherTracker,2013-01-08 01:42:00,
2013-01-07 17:47:00,46.9,42.6,30.18,East,81,0.0,0.0,85,0.00,,,0.00,0,WeatherTracker,2013-01-08 01:47:00,
2013-01-07 17:52:00,46.7,42.4,30.18,East,81,0.0,0.0,85,0.00,,,0.00,0,WeatherTracker,2013-01-08 01:52:00,
2013-01-07 17:57:00,46.5,42.2,30.19,East,81,0.0,0.0,85,0.00,,,0.00,0,WeatherTracker,2013-01-08 01:57:00,
2013-01-07 18:02:00,46.2,42.2,30.19,East,81,0.0,0.0,86,0.00,,,0.00,0,WeatherTracker,2013-01-08 02:02:00,
2013-01-07 18:07:00,46.0,42.1,30.19,East,81,0.0,0.0,86,0.00,,,0.00,0,WeatherTracker,2013-01-08 02:07:00,
2013-01-07 18:12:00,45.8,41.9,30.19,East,81,0.0,0.0,86,0.00,,,0.00,0,WeatherTracker,2013-01-08 02:12:00,
2013-01-07 18:17:00,45.5,41.6,30.19,East,81,0.0,0.0,86,0.00,,,0.00,0,WeatherTracker,2013-01-08 02:17:00,
2013-01-07 18:23:00,45.2,41.6,30.18,East,81,0.0,0.0,87,0.00,,,0.00,0,WeatherTracker,2013-01-08 02:23:00,
2013-01-07 18:28:00,45.1,41.5,30.18,East,81,0.0,0.0,87,0.00,,,0.00,0,WeatherTracker,2013-01-08 02:28:00,
2013-01-07 18:33:00,45.1,41.5,30.18,East,81,0.0,0.0,87,0.00,,,0.00,0,WeatherTracker,2013-01-08 02:33:00,
2013-01-07 18:38:00,45.0,41.4,30.18,East,81,0.0,0.0,87,0.00,,,0.00,0,WeatherTracker,2013-01-08 02:38:00,
2013-01-07 18:43:00,45.0,41.4,30.18,East,81,0.0,0.0,87,0.00,,,0.00,0,WeatherTracker,2013-01-08 02:43:00,
2013-01-07 18:48:00,44.9,41.6,30.18,East,81,0.0,0.0,88,0.00,,,0.00,0,WeatherTracker,2013-01-08 02:48:00,
2013-01-07 18:53:00,44.7,41.4,30.18,East,81,0.0,0.0,88,0.00,,,0.00,0,WeatherTracker,2013-01-08 02:53:00,
2013-01-07 18:58:00,44.5,41.2,30.18,East,81,0.0,0.0,88,0.00,,,0.00,0,WeatherTracker,2013-01-08 02:58:00,
2013-01-07 19:03:00,44.3,41.0,30.18,East,81,0.0,0.0,88,0.00,,,0.00,0,WeatherTracker,2013-01-08 03:03:00,
2013-01-07 19:08:00,44.1,40.8,30.18,East,81,0.0,0.0,88,0.00,,,0.00,0,WeatherTracker,2013-01-08 03:08:00,
2013-01-07 19:13:00,43.9,40.6,30.19,East,81,0.0,0.0,88,0.00,,,0.00,0,WeatherTracker,2013-01-08 03:13:00,
2013-01-07 19:18:00,43.7,40.4,30.19,East,81,0.0,0.0,88,0.00,,,0.00,0,WeatherTracker,2013-01-08 03:18:00,
2013-01-07 19:23:00,43.5,40.2,30.19,East,81,0.0,0.0,88,0.00,,,0.00,0,WeatherTracker,2013-01-08 03:23:00,
2013-01-07 19:28:00,43.4,40.1,30.18,East,81,0.0,0.0,88,0.00,,,0.00,0,WeatherTracker,2013-01-08 03:28:00,
2013-01-07 19:33:00,43.3,40.0,30.19,East,81,0.0,0.0,88,0.00,,,0.00,0,WeatherTracker,2013-01-08 03:33:00,
2013-01-07 19:38:00,43.1,40.1,30.18,East,81,0.0,0.0,89,0.00,,,0.00,0,WeatherTracker,2013-01-08 03:38:00,
2013-01-07 19:43:00,43.0,39.7,30.18,East,81,0.0,0.0,88,0.00,,,0.00,0,WeatherTracker,2013-01-08 03:43:00,
2013-01-07 19:48:00,42.9,39.9,30.19,East,81,0.0,0.0,89,0.00,,,0.00,0,WeatherTracker,2013-01-08 03:48:00,
2013-01-07 19:53:00,42.8,39.8,30.19,East,81,0.0,0.0,89,0.00,,,0.00,0,WeatherTracker,2013-01-08 03:53:00,
2013-01-07 19:59:00,42.6,39.6,30.19,East,81,0.0,0.0,89,0.00,,,0.00,0,WeatherTracker,2013-01-08 03:59:00,
2013-01-07 20:04:00,42.5,39.5,30.20,East,81,0.0,0.0,89,0.00,,,0.00,0,WeatherTracker,2013-01-08 04:04:00,
2013-01-07 20:22:00,42.1,39.1,30.20,East,81,0.0,0.0,89,0.00,,,0.00,0,WeatherTracker,2013-01-08 04:22:00,
2013-01-07 20:27:00,42.1,39.1,30.19,East,81,0.0,0.0,89,0.00,,,0.00,0,WeatherTracker,2013-01-08 04:27:00,
2013-01-07 20:32:00,42.1,39.1,30.19,East,81,0.0,0.0,89,0.00,,,0.00,0,WeatherTracker,2013-01-08 04:32:00,
2013-01-07 20:37:00,42.1,39.1,30.18,East,81,0.0,0.0,89,0.00,,,0.00,0,WeatherTracker,2013-01-08 04:37:00,
2013-01-07 20:43:00,42.1,39.1,30.19,East,81,0.0,0.0,89,0.00,,,0.00,0,WeatherTracker,2013-01-08 04:43:00,
2013-01-07 20:48:00,42.2,39.2,30.19,East,81,0.0,0.0,89,0.00,,,0.00,0,WeatherTracker,2013-01-08 04:48:00,
2013-01-07 20:52:00,42.3,39.3,30.19,East,81,0.0,0.0,89,0.00,,,0.00,0,WeatherTracker,2013-01-08 04:52:00,
2013-01-07 20:58:00,42.3,39.3,30.19,East,81,0.0,0.0,89,0.00,,,0.00,0,WeatherTracker,2013-01-08 04:58:00,
2013-01-07 21:00:00,42.3,39.3,30.19,East,81,0.0,0.0,89,0.00,,,0.00,0,WeatherTracker,2013-01-08 05:00:00,
2013-01-07 21:01:00,42.3,39.3,30.20,East,81,0.0,0.0,89,0.00,,,0.00,0,WeatherTracker,2013-01-08 05:01:00,
2013-01-07 21:03:00,42.3,39.3,30.19,East,81,0.0,0.0,89,0.00,,,0.00,0,WeatherTracker,2013-01-08 05:03:00,
2013-01-07 21:08:00,42.2,39.2,30.19,East,81,0.0,0.0,89,0.00,,,0.00,0,WeatherTracker,2013-01-08 05:08:00,
2013-01-07 21:13:00,42.2,39.2,30.19,East,81,0.0,0.0,89,0.00,,,0.00,0,WeatherTracker,2013-01-08 05:13:00,
2013-01-07 21:18:00,42.1,39.1,30.19,East,81,0.0,0.0,89,0.00,,,0.00,0,WeatherTracker,2013-01-08 05:18:00,
2013-01-07 21:23:00,42.0,39.0,30.18,East,81,0.0,0.0,89,0.00,,,0.00,0,WeatherTracker,2013-01-08 05:23:00,
2013-01-07 21:28:00,41.9,38.9,30.18,East,81,0.0,0.0,89,0.00,,,0.00,0,WeatherTracker,2013-01-08 05:28:00,
2013-01-07 21:33:00,41.9,38.9,30.19,East,81,0.0,0.0,89,0.00,,,0.00,0,WeatherTracker,2013-01-08 05:33:00,
2013-01-07 21:38:00,41.9,38.9,30.19,East,81,0.0,0.0,89,0.00,,,0.00,0,WeatherTracker,2013-01-08 05:38:00,
2013-01-07 21:43:00,41.8,38.8,30.19,East,81,0.0,0.0,89,0.00,,,0.00,0,WeatherTracker,2013-01-08 05:43:00,
2013-01-07 21:48:00,41.7,38.7,30.19,East,81,0.0,0.0,89,0.00,,,0.00,0,WeatherTracker,2013-01-08 05:48:00,
2013-01-07 21:53:00,41.6,38.6,30.19,East,81,0.0,0.0,89,0.00,,,0.00,0,WeatherTracker,2013-01-08 05:53:00,
2013-01-07 21:58:00,41.5,38.5,30.19,East,81,0.0,0.0,89,0.00,,,0.00,0,WeatherTracker,2013-01-08 05:58:00,
2013-01-07 22:03:00,41.4,38.4,30.20,East,81,0.0,0.0,89,0.00,,,0.00,0,WeatherTracker,2013-01-08 06:03:00,
2013-01-07 22:08:00,41.3,38.3,30.20,East,81,0.0,0.0,89,0.00,,,0.00,0,WeatherTracker,2013-01-08 06:08:00,
2013-01-07 22:13:00,41.2,38.2,30.20,East,81,0.0,0.0,89,0.00,,,0.00,0,WeatherTracker,2013-01-08 06:13:00,
2013-01-07 22:18:00,41.0,38.0,30.20,East,81,0.0,0.0,89,0.00,,,0.00,0,WeatherTracker,2013-01-08 06:18:00,
2013-01-07 22:23:00,41.0,38.0,30.20,East,81,0.0,0.0,89,0.00,,,0.00,0,WeatherTracker,2013-01-08 06:23:00,
2013-01-07 22:28:00,40.9,37.9,30.20,East,81,0.0,0.0,89,0.00,,,0.00,0,WeatherTracker,2013-01-08 06:28:00,
2013-01-07 22:33:00,40.8,37.8,30.20,East,81,0.0,0.0,89,0.00,,,0.00,0,WeatherTracker,2013-01-08 06:33:00,
2013-01-07 22:39:00,40.7,37.7,30.20,East,81,0.0,0.0,89,0.00,,,0.00,0,WeatherTracker,2013-01-08 06:39:00,
2013-01-07 22:44:00,40.6,37.6,30.20,East,81,0.0,0.0,89,0.00,,,0.00,0,WeatherTracker,2013-01-08 06:44:00,
2013-01-07 22:49:00,40.4,37.4,30.21,East,81,0.0,0.0,89,0.00,,,0.00,0,WeatherTracker,2013-01-08 06:49:00,
2013-01-07 22:54:00,40.4,37.4,30.21,East,81,0.0,0.0,89,0.00,,,0.00,0,WeatherTracker,2013-01-08 06:54:00,
2013-01-07 22:59:00,40.4,37.4,30.21,East,81,0.0,0.0,89,0.00,,,0.00,0,WeatherTracker,2013-01-08 06:59:00,
2013-01-07 23:04:00,40.5,37.5,30.21,East,81,0.0,0.0,89,0.00,,,0.00,0,WeatherTracker,2013-01-08 07:04:00,
2013-01-07 23:09:00,40.4,37.4,30.21,East,81,0.0,0.0,89,0.00,,,0.00,0,WeatherTracker,2013-01-08 07:09:00,
2013-01-07 23:14:00,40.4,37.4,30.21,East,81,0.0,0.0,89,0.00,,,0.00,0,WeatherTracker,2013-01-08 07:14:00,
2013-01-07 23:19:00,40.4,37.4,30.21,East,81,0.0,0.0,89,0.00,,,0.00,0,WeatherTracker,2013-01-08 07:19:00,
2013-01-07 23:24:00,40.4,37.4,30.21,East,81,0.0,0.0,89,0.00,,,0.00,0,WeatherTracker,2013-01-08 07:24:00,
2013-01-07 23:29:00,40.4,37.4,30.21,East,81,0.0,0.0,89,0.00,,,0.00,0,WeatherTracker,2013-01-08 07:29:00,
2013-01-07 23:34:00,40.3,37.3,30.21,East,81,0.0,0.0,89,0.00,,,0.00,0,WeatherTracker,2013-01-08 07:34:00,
2013-01-07 23:39:00,40.3,37.3,30.21,East,81,0.0,0.0,89,0.00,,,0.00,0,WeatherTracker,2013-01-08 07:39:00,
2013-01-07 23:44:00,40.2,37.2,30.21,East,81,0.0,0.0,89,0.00,,,0.00,0,WeatherTracker,2013-01-08 07:44:00,
2013-01-07 23:49:00,40.2,37.2,30.21,East,81,0.0,0.0,89,0.00,,,0.00,0,WeatherTracker,2013-01-08 07:49:00,
2013-01-07 23:54:00,40.1,37.1,30.21,East,81,0.0,0.0,89,0.00,,,0.00,0,WeatherTracker,2013-01-08 07:54:00,
2013-01-07 23:59:00,40.0,37.0,30.21,East,81,0.0,0.0,89,0.00,,,0.00,0,WeatherTracker,2013-01-08 07:59:00,